Location: *
(37.5724°S, 58.0067°E)
Time: 11:44:54
(UTC+00:00)

Cosmos 1000 Rocket - Pass Details

Date: 26 September 2020
Orbit: 954 x 992 km, 82.9° (Epoch: 30 October)

Event Time Altitude Azimuth Distance (km) Brightness Sun altitude
Rises 23:33:09 0° 191° (SSW) 3,737 7.7 -26.9°
Reaches altitude 10° 23:35:44 10° 194° (SSW) 2,779 7.0 -26.4°
Maximum altitude 23:41:59 60° 272° (W) 1,126 4.5 -25.3°
Enters shadow 23:42:32 58° 295° (WNW) 1,147 4.5 -25.2°
